Regional Weather Roundup
Issued by NWS Portland, ME

Current Version | Previous Version | Text Only | Print | Product List | Glossary Off
Versions: 1 2 3 4 5 6 7 8 9 10 11 12 13 14 15 16 17 18 19 20 21 22 23 24 25 26 27 28 29 30 31 32 33 34 35 36 37 38 39 40 41 42 43 44 45 46 47 48 49 50
363 ASUS41 KGYX 301205 RWRGYX WEATHER ROUNDUP FOR MAINE AND NEW HAMPSHIRE NATIONAL WEATHER SERVICE GRAY ME 800 AM EDT TUE MAY 30 2017 MEZ002-005-006-010-012-015-018-020-021-024-026-027-029-301300- MAINE CITY SKY/WX TMP DP RH WIND PRES REMARKS PORTLAND FOG 49 48 97 SE3 30.21R VSB 3/4 6HR MIN TEMP: 47; 6HR MAX TEMP: 49; SANFORD CLOUDY 49 47 93 CALM 30.21R BAR HARBOR SUNNY 52 44 74 VRB3 30.23R WISCASSET CLOUDY 51 45 79 CALM 30.23R 6HR MIN TEMP: 48; 6HR MAX TEMP: 51; ROCKLAND SUNNY 53 42 66 VRB5 30.22R FRYEBURG CLOUDY 49 47 93 CALM 30.20R 6HR MIN TEMP: 46; 6HR MAX TEMP: 49; LEWISTONAUBURN LGT RAIN 49 48 97 CALM 30.21R FOG AUGUSTA CLOUDY 50 42 74 S6 30.21R 6HR MIN TEMP: 46; 6HR MAX TEMP: 50; WATERVILLE CLOUDY 52 46 80 VRB6 30.18S BANGOR MOSUNNY 54 42 64 S9 30.22R 6HR MIN TEMP: 43; 6HR MAX TEMP: 54; 6HR PCP: TRACE; GREENVILLE N/A 49 46 90 VRB6 30.14S 6HR MIN TEMP: 44; 6HR MAX TEMP: 49; MILLINOCKET CLOUDY 52 46 80 VRB3 30.20R 6HR MIN TEMP: 48; 6HR MAX TEMP: 52; HOULTON CLOUDY 50 46 86 VRB3 30.18R 6HR MIN TEMP: 46; 6HR MAX TEMP: 50; 6HR PCP: TRACE; PRESQUE ISLE CLOUDY 48 44 86 SE9 30.17S 6HR MIN TEMP: 46; 6HR MAX TEMP: 48; 6HR PCP: TRACE; FRENCHVILLE CLOUDY 45 42 89 SE12 30.14S 6HR MIN TEMP: 44; 6HR MAX TEMP: 45; 6HR PCP: TRACE; CARIBOU CLOUDY 49 43 80 SE7 30.15F 6HR MIN TEMP: 47; 6HR MAX TEMP: 49; 6HR PCP: TRACE; $$ NHZ002-005-008-009-011-012-014-301300- NEW HAMPSHIRE CITY SKY/WX TMP DP RH WIND PRES REMARKS PORTSMOUTH CLOUDY 49 46 88 CALM 30.19S ROCHESTER CLOUDY 49 45 86 CALM 30.19S 6HR MIN TEMP: 46; 6HR MAX TEMP: 49; NASHUA CLOUDY 51 48 89 CALM 30.21R MANCHESTER CLOUDY 50 45 83 CALM 30.19R 6HR MIN TEMP: 47; 6HR MAX TEMP: 50; CONCORD CLOUDY 49 47 93 SE3 30.20R 6HR MIN TEMP: 47; 6HR MAX TEMP: 49; LACONIA CLOUDY 49 46 90 CALM 30.20R PLYMOUTH CLOUDY 48 46 91 E3 30.18S FOG BERLIN MOSUNNY 53 45 74 CALM 30.14R 6HR MIN TEMP: 39; 6HR MAX TEMP: 53; WHITEFIELD PTSUNNY 54 46 74 CALM 30.12S 6HR MIN TEMP: 47; 6HR MAX TEMP: 54; JAFFREY CLOUDY 50 49 96 CALM 30.18R 6HR MIN TEMP: 47; 6HR MAX TEMP: 50; KEENE CLOUDY 51 48 89 S3 30.18R LEBANON CLOUDY 52 48 86 VRB5 30.15R 6HR MIN TEMP: 50; 6HR MAX TEMP: 52; MT WASHINGTON NOT AVBL $$ VTZ005-007-008-301300- VERMONT CITY SKY/WX TMP DP RH WIND PRES REMARKS ST JOHNSBURY N/A 51 46 83 MISG 30.13R MONTPELIER CLOUDY 49 48 97 S10 30.16R BURLINGTON CLOUDY 59 52 77 S18G26 30.06R $$ MAZ007-012-024-CTZ003-RIZ002-NYZ038-NYZ072-301300- SOUTHERN NEW ENGLAND AND NY CITY SKY/WX TMP DP RH WIND PRES REMARKS BOSTON CLOUDY 51 49 92 SE3 30.21R WORCESTER CLOUDY 48 47 96 S7 30.19S FOG NANTUCKET CLOUDY N/A N/A N/A NE8 30.19S PROVIDENCE CLOUDY 52 51 97 NE3 30.21R HARTFORD CLOUDY 54 51 90 S8 30.18S ALBANY CLOUDY 57 51 80 S14G22 30.10R NEW YORK CITY CLOUDY 56 52 86 S9 30.16R $$ ANZ081-ANZ082-ANZ150-NHZ014-MEZ023>029-301300- COASTAL MARINE OBSERVATIONS STATION/POSITION TIME TEMP WIND PRES WAVE AIR SEA DIR/SP/G HT/PER (UTC) (F) (DEG/KT/KT) (MB) (FT/S) MOUNT DESERT ROC 1200 47 1023.6R MATINICUS ROCK 1100 50 100/ 4/ 4 1022.6R ISLE OF SHOALS 1100 47 10/ 3/ 3 1022.4R JEFFREYS LEDGE 1136 49 N/A 4/ 6 $$ .............KEY.............. WCI - WIND CHILL TC - TEMPERATURE IN CELSIUS VSB - VISIBILITY IN MILES HX - HEAT INDEX FAIR- INDICATES FEW OR NO CLOUDS BELOW 12,000 FT, WITH NO SIGNIFICANT WEATHER AND/OR OBSTRUCTIONS TO VISIBILITY.

USA.gov is the U.S. government's official web portal to all federal, state and local government web resources and services.